Regional Weather Roundup
Issued by NWS Albany, NY

Home | Current Version | Previous Version | Graphics & Text | Print | Product List | Glossary Off
Versions: 1 2 3 4 5 6 7 8 9 10 11 12 13 14 15 16 17 18 19 20 21 22 23 24 25 26 27 28 29 30 31 32 33 34 35 36 37 38 39 40 41 42 43 44 45 46 47 48 49 50

867
ASUS41 KALY 282210
RWRALY

NEW YORK STATE HOURLY WEATHER ROUNDUP
NATIONAL WEATHER SERVICE ALBANY NY
600 PM EDT THU APR 28 2016

NOTE: "FAIR" INDICATES FEW OR NO CLOUDS BELOW 12,000 FEET WITH NO
SIGNIFICANT WEATHER AND/OR NO OBSTRUCTIONS TO VISIBILITY.

NYZ032-033-038>043-046>054-057>066-NYZ062>081-082-084-282300-
EAST


CITY           SKY/WX    TMP DP  RH WIND       PRES   REMARKS
ALBANY         CLOUDY    56  21  25 SE3       30.00R
GLENS FALLS    CLOUDY    51  26  37 NE10      30.03R
POUGHKEEPSIE   CLOUDY    60  18  19 CALM      29.99R
MONTGOMERY     CLOUDY    58  24  27 CALM      29.99S
WHITE PLAINS   CLOUDY    52  32  46 S7        30.01S
ISLIP          CLOUDY    50  32  50 S9        30.03S
NEW YORK CITY  CLOUDY    53  30  41 S9        30.03R
CENTRAL PARK   CLOUDY    53  30  41 S5        30.06R
$$

NYZ005>009-017-018-044>046-055-056-282300-
CENTRAL


CITY           SKY/WX    TMP DP  RH WIND       PRES   REMARKS
FULTON         CLOUDY    50  27  40 N9        30.04R
SYRACUSE       CLOUDY    50  27  40 NW9       30.02R
ROME           CLOUDY    56  24  29 W7        30.01R
ELMIRA         CLOUDY    53  21  28 S5        29.98S
BINGHAMTON     CLOUDY    50  19  29 SW5       29.98S
MONTICELLO     CLOUDY    54  23  30 S6        30.01R
$$

NYZ026>034-041>043-087-282300-
NORTH


CITY           SKY/WX    TMP DP  RH WIND       PRES   REMARKS
WATERTOWN      CLOUDY    48  22  35 NE12      30.06R
FORT DRUM      NOT AVBL
MASSENA        MOSUNNY   47  15  27 VRB5      30.12R
SARANAC LAKE   CLOUDY    44  17  33 NE10      30.01R
PLATTSBURGH    MOSUNNY   42  17  36 NE13      30.11R
$$

NYZ001>004-010>016-019>021-085-282300-
WEST


CITY           SKY/WX    TMP DP  RH WIND       PRES   REMARKS
NIAGARA FALLS  CLOUDY    47  26  44 NE15      30.01R
BUFFALO        CLOUDY    48  26  42 NE14      30.00R
DUNKIRK        LGT RAIN  48  37  65 VRB5      29.98R
JAMESTOWN      PTSUNNY   45  34  65 E12       29.96S
WELLSVILLE     LGT RAIN  43  34  70 S7        29.99R
ROCHESTER      CLOUDY    44  20  38 NE10      30.04R
PENN YAN       CLOUDY    49  32  52 N5        30.01R
$$

             KEY
       WCI = WIND CHILL INDEX
       VSB = VISIBILITY
       HX  = HEAT INDEX
$$




USA.gov is the U.S. government's official web portal to all federal, state and local government web resources and services.